Zurück zum Katalog

STARLINK-37490

AktivKommunikationVLEO
NORAD 69525·PAYLOAD·🇺🇸 United States

Gestartet Jun 12, 2026 von Cape Canaveral Space Force Station

Loading…

Nächste Überflüge (nächste 24 Stunden)

TLE

AktuellSource: CelesTrak SupGP

Epoche: Sep 14, 2026, 15:48 UTC

1 69525C 26133T   26257.65881944 -.00032742  00000+0 -96782-3 0  2570
2 69525  53.1565 256.7882 0001226  79.1837 162.5823 15.34392375    18

Verfolge STARLINK-37490 in Echtzeit mit AllMySat

Download on the App Store